This demonstration page uses our WeatherBlox Daily Observations layout. Learn more.

Left ArrowRight Arrow

Hourly Observations for December 27, 2020

Temp ( °F °C ) Dew Point ( °F °C ) Humidity (%) Winds ( mph kmh ) Pressure ( in mb ) Visibility ( mi km ) Precip ( " mm )
12:53 am 00:53 Clear 20 -6.7 17 -8.3 89 89 E 3 6 30.07 1018 10 16 0.00 0.00
1:53 am 01:53 Clear 22 -5.6 18 -7.8 85 85 E 3 6 30.06 1018 10 16 0.00 0.00
2:53 am 02:53 Clear 21 -6.1 18 -7.8 88 88 E 3 6 30.07 1018 10 16 0.00 0.00
3:53 am 03:53 Clear 22 -5.6 19 -7.2 89 89 E 3 6 30.07 1018 10 16 0.00 0.00
4:53 am 04:53 Clear 23 -5 19 -7.2 85 85 E 5 7 30.07 1018 10 16 0.00 0.00
5:53 am 05:53 Clear 23 -5 20 -6.7 88 88 E 6 9 30.06 1018 10 16 0.00 0.00
6:53 am 06:53 Clear 23 -5 20 -6.7 88 88 E 3 6 30.07 1018 10 16 0.00 0.00
7:53 am 07:53 Clear 25 -3.9 21 -6.1 85 85 ESE 5 7 30.06 1018 10 16 0.00 0.00
8:53 am 08:53 Sunny 29 -1.7 24 -4.4 82 82 ESE 5 7 30.06 1018 10 16 0.00 0.00
9:53 am 09:53 Sunny 33 0.6 25 -3.9 72 72 VRB 3 6 30.06 1018 10 16 0.00 0.00
10:53 am 10:53 Sunny 41 5 27 -2.8 57 57 undefined N/A 30.05 1018 10 16 0.00 0.00
11:53 am 11:53 Sunny 44 6.7 28 -2.2 53 53 S 7 11 30.02 1017 10 16 0.00 0.00
12:53 pm 12:53 Sunny 48 8.9 30 -1.1 50 50 VRB 5 7 29.97 1015 10 16 0.00 0.00
1:53 pm 13:53 Sunny 53 11.7 31 -0.6 43 43 VRB 3 6 29.94 1014 10 16 0.00 0.00
2:53 pm 14:53 Sunny 52 11.1 31 -0.6 45 45 VRB 5 7 29.92 1013 10 16 0.00 0.00
3:53 pm 15:53 Sunny 52 11.1 31 -0.6 45 45 VRB 5 7 29.91 1013 10 16 0.00 0.00
4:53 pm 16:53 Sunny 50 10 32 0 50 50 VRB 6 9 29.89 1012 10 16 0.00 0.00
5:53 pm 17:53 Clear 49 9.4 32 0 52 52 VRB 6 9 29.88 1012 10 16 0.00 0.00
6:53 pm 18:53 Mostly Cloudy 49 9.4 32 0 52 52 VRB 5 7 29.87 1011 10 16 0.00 0.00
7:53 pm 19:53 Clear 51 10.6 31 -0.6 46 46 VRB 5 7 29.86 1011 10 16 0.00 0.00
8:53 pm 20:53 Mostly Cloudy 51 10.6 30 -1.1 44 44 S 9 15 29.85 1011 10 16 0.00 0.00
9:53 pm 21:53 Cloudy 53 11.7 29 -1.7 40 40 SSW 9 15 29.88 1012 10 16 0.00 0.00
10:53 pm 22:53 Cloudy 53 11.7 32 0 45 45 SW 13 20 29.89 1012 10 16 0.00 0.00
11:53 pm 23:53 Cloudy with Light Rain 51 10.6 35 1.7 54 54 SW 10 17 29.90 1012 10 16 0.01 0.25

Powered by AerisWeather